This demonstration page uses our WeatherBlox Daily Observations layout. Learn more.

Left ArrowRight Arrow

39.51506, -84.39828

Hourly Observations for April 2, 2015

Temp ( °F °C ) Dew Point ( °F °C ) Humidity (%) Winds ( mph kmh ) Pressure ( in mb ) Visibility ( mi km ) Precip ( " mm )
12:00 am 00:00 Clear 42 5.5 32 0.1 69 69 N N/A 30.06 1018 10 16.0934 N/A
12:15 am 00:15 Clear 42 5.5 32 undefined 68 68 N N/A 30.06 1018 10 16.0934 N/A
12:35 am 00:35 Clear 41 4.9 32 0.1 71 71 WNW 3 6 30.06 1018 10 16.0934 N/A
12:55 am 00:55 Clear 42 5.5 34 0.9 73 73 N N/A 30.06 1018 10 16.0934 N/A
1:15 am 01:15 Clear 42 5.5 33 0.8 72 72 N N/A 30.06 1018 10 16.0934 N/A
1:35 am 01:35 Clear 45 7.1 33 0.6 64 64 N N/A 30.03 1017 10 16.0934 N/A
1:55 am 01:55 Clear 42 5.8 32 0.2 68 68 N N/A 30.03 1017 10 16.0934 N/A
2:15 am 02:15 Clear 44 6.8 32 undefined 62 62 N N/A 30 1016 10 16.0934 N/A
2:35 am 02:35 Clear 40 4.6 32 -0.2 71 71 N N/A 30 1016 10 16.0934 N/A
2:55 am 02:55 Clear 42 5.5 31 -0.7 65 65 N N/A 30 1016 10 16.0934 N/A
3:15 am 03:15 Clear 41 4.9 31 -0.8 67 67 N N/A 30 1016 10 16.0934 N/A
3:35 am 03:35 Clear 40 4.2 31 -0.3 73 73 N N/A 29.97 1015 10 16.0934 N/A
3:55 am 03:55 Clear 39 4 32 -0.2 74 74 N N/A 29.97 1015 10 16.0934 N/A
4:15 am 04:15 Clear 39 4 32 0.1 76 76 N N/A 29.97 1015 10 16.0934 N/A
4:35 am 04:35 Clear 39 4 32 undefined 75 75 N N/A 29.97 1015 10 16.0934 N/A
4:55 am 04:55 Clear 39 4 31 -0.5 73 73 N N/A 29.97 1015 10 16.0934 N/A
5:15 am 05:15 Clear 40 4.7 31 -0.8 68 68 N N/A 29.97 1015 10 16.0934 N/A
5:35 am 05:35 Clear 40 4.7 31 -0.7 68 68 N N/A 29.97 1015 10 16.0934 N/A
5:55 am 05:55 Clear 41 5.2 34 1.1 75 75 N N/A 29.97 1015 10 16.0934 N/A
6:15 am 06:15 Clear 43 6.1 33 0.7 69 69 N N/A 29.97 1015 10 16.0934 N/A
6:35 am 06:35 Mostly Cloudy 43 6.1 36 2.3 77 77 N N/A 29.97 1015 10 16.0934 N/A
6:55 am 06:55 Cloudy 44 6.8 37 2.5 74 74 N N/A 29.97 1015 10 16.0934 N/A
7:15 am 07:15 Cloudy 45 7.3 37 2.5 72 72 N N/A 29.97 1015 10 16.0934 N/A
7:35 am 07:35 Partly Cloudy 47 8.2 39 4 75 75 N N/A 29.94 1014 10 16.0934 N/A
7:55 am 07:55 Partly Cloudy 48 8.9 40 4.3 73 73 N N/A 29.94 1014 10 16.0934 N/A
8:15 am 08:15 Mostly Cloudy 49 9.6 42 5.7 77 77 WSW 3 6 29.94 1014 10 16.0934 N/A
8:35 am 08:35 Cloudy with Light Snow 49 9.6 39 4.1 69 69 SW 8 13 29.97 1015 1.75 2.816345 N/A
8:55 am 08:55 Cloudy with Light Snow 49 9.6 41 4.8 72 72 SW 5 7 29.97 1015 4 6.43736 N/A
9:15 am 09:15 Cloudy 49 9.6 44 6.4 81 81 N 3 6 29.94 1014 10 16.0934 N/A
9:35 am 09:35 Mostly Cloudy 49 9.7 44 6.9 83 83 N N/A 29.94 1014 10 16.0934 N/A
9:55 am 09:55 Mostly Cloudy 55 12.5 46 7.7 73 73 SSE 5 7 29.94 1014 10 16.0934 N/A
10:15 am 10:15 Mostly Cloudy 57 13.8 45 7.1 64 64 S 7 11 29.94 1014 10 16.0934 N/A
10:35 am 10:35 Mostly Cloudy with Rain 56 13.6 45 7 65 65 S 7 11 29.91 1013 7 11.26538 N/A
10:55 am 10:55 Cloudy 57 13.8 46 7.7 67 67 S 6 9 29.91 1013 10 16.0934 N/A
11:15 am 11:15 Mostly Cloudy 58 14.2 45 7.1 63 63 S 9 15 29.91 1013 10 16.0934 N/A
11:35 am 11:35 Cloudy with Light Rain 58 14.2 45 7.3 63 63 S 12 19 29.91 1013 10 16.0934 N/A
11:55 am 11:55 Cloudy 60 15.3 46 7.7 61 61 S 13 20 29.88 1012 10 16.0934 N/A
12:15 pm 12:15 Partly Cloudy 62 16.8 47 8.3 57 57 SSW 14 22 29.85 1011 10 16.0934 N/A
12:35 pm 12:35 Sunny 67 19.5 50 10.1 55 55 SSW 17 28 29.85 1011 10 16.0934 N/A
12:55 pm 12:55 Mostly Cloudy 69 20.8 52 10.9 53 53 SSW 20 31 29.85 1011 10 16.0934 N/A
1:15 pm 13:15 Cloudy 69 20.8 54 12.2 58 58 SW 16 26 29.85 1011 10 16.0934 N/A
1:35 pm 13:35 Cloudy with Light Rain 69 20.7 55 13 62 62 SSW 21 33 29.85 1011 10 16.0934 N/A
1:55 pm 13:55 Cloudy 67 19.5 55 13 66 66 SSW 20 31 29.83 1010 10 16.0934 N/A
2:15 pm 14:15 Cloudy 67 19.5 57 13.7 69 69 SW 22 35 29.83 1010 10 16.0934 N/A
2:35 pm 14:35 Cloudy 67 19.5 56 13.6 69 69 SW 21 33 29.83 1010 10 16.0934 N/A
2:55 pm 14:55 Cloudy with Light Rain 63 17.3 56 13.3 78 78 SW 17 28 29.83 1010 7 11.26538 N/A
3:15 pm 15:15 Cloudy with Light Rain 63 17.3 56 13.6 79 79 SW 15 24 29.85 1011 10 16.0934 N/A
3:35 pm 15:35 Cloudy with Rain 62 16.8 56 13.5 81 81 SW 14 22 29.85 1011 7 11.26538 N/A
3:55 pm 15:55 Cloudy with Light Rain 62 16.5 57 13.8 84 84 SSW 14 22 29.83 1010 7 11.26538 N/A
4:15 pm 16:15 Cloudy with Light Rain 61 16 56 13.6 86 86 SSW 12 19 29.83 1010 10 16.0934 N/A
4:35 pm 16:35 Mostly Cloudy with Light Rain 62 16.6 57 14.1 85 85 S 12 19 29.8 1009 10 16.0934 N/A
4:55 pm 16:55 Mostly Cloudy 62 16.7 57 14.1 85 85 SSW 10 17 29.83 1010 10 16.0934 N/A
5:15 pm 17:15 Mostly Cloudy with Light Rain 64 17.8 59 15.2 85 85 SSW 9 15 29.8 1009 10 16.0934 N/A
5:35 pm 17:35 Cloudy 67 19.5 61 16.2 81 81 SSW 12 19 29.8 1009 10 16.0934 N/A
5:55 pm 17:55 Cloudy 67 19.6 61 15.9 79 79 SSW 14 22 29.83 1010 10 16.0934 N/A
6:15 pm 18:15 Cloudy 67 19.5 61 16 80 80 SSW 12 19 29.83 1010 10 16.0934 N/A
6:35 pm 18:35 Cloudy 67 19.5 61 16.1 81 81 WSW 8 13 29.83 1010 10 16.0934 N/A
6:55 pm 18:55 Cloudy 68 20 62 16.6 81 81 SW 7 11 29.83 1010 10 16.0934 N/A
7:15 pm 19:15 Cloudy 67 19.5 61 16.1 81 81 S 7 11 29.83 1010 10 16.0934 N/A
7:35 pm 19:35 Mostly Cloudy 69 20.8 63 17.1 79 79 SSW 8 13 29.83 1010 10 16.0934 N/A
7:55 pm 19:55 Partly Cloudy 69 20.8 63 17.1 79 79 SSW 12 19 29.83 1010 10 16.0934 N/A
8:15 pm 20:15 Mostly Cloudy 68 19.9 61 16.3 80 80 SSW 7 11 29.83 1010 10 16.0934 N/A
8:35 pm 20:35 Cloudy 67 19.5 61 16 80 80 SSW 9 15 29.83 1010 10 16.0934 N/A
8:55 pm 20:55 Cloudy with Light Rain 67 19.5 61 16.1 81 81 SSW 10 17 29.83 1010 10 16.0934 N/A
9:15 pm 21:15 Cloudy 67 19.5 61 16 80 80 SW 10 17 29.83 1010 10 16.0934 N/A
9:35 pm 21:35 Cloudy 67 19.5 61 16 80 80 SSW 9 15 29.83 1010 10 16.0934 N/A
9:55 pm 21:55 Cloudy 67 19.5 61 16 80 80 NW 10 17 29.85 1011 10 16.0934 N/A
10:15 pm 22:15 Cloudy with Rain 62 16.6 57 14.1 85 85 WSW 3 6 29.85 1011 4 6.43736 N/A
10:35 pm 22:35 Cloudy 61 16.3 57 14 86 86 N N/A 29.88 1012 10 16.0934 N/A
10:55 pm 22:55 Cloudy with Rain 61 16 57 13.7 86 86 SSW 10 17 29.88 1012 7 11.26538 N/A
11:15 pm 23:15 Cloudy with Heavy Rain 61 16 57 13.7 86 86 SW 3 6 29.88 1012 4 6.43736 N/A
11:35 pm 23:35 Mostly Cloudy 61 16 57 14 88 88 N N/A 29.85 1011 10 16.0934 N/A
11:55 pm 23:55 Mostly Cloudy with Mist and Fog 60 15.4 56 13.4 88 88 N N/A 29.85 1011 5 8.0467 N/A

Powered by AerisWeather